TimeMST,TemperatureF,Dew PointF,Humidity,Sea Level PressureIn,VisibilityMPH,Wind Direction,Wind SpeedMPH,Gust SpeedMPH,PrecipitationIn,Events,Conditions,WindDirDegrees,DateUTC
12:15 AM,35.1,18.0,50,30.25,10.0,Calm,Calm,-,N/A,,Clear,0,2013-03-03 07:15:00
12:35 AM,34.7,18.7,52,30.24,10.0,North,6.9,18.4,N/A,,Clear,350,2013-03-03 07:35:00
12:55 AM,34.7,19.0,53,30.23,10.0,North,3.5,-,N/A,,Clear,10,2013-03-03 07:55:00
1:15 AM,35.1,18.7,51,30.22,10.0,NE,5.8,-,N/A,,Clear,40,2013-03-03 08:15:00
1:35 AM,36.3,18.0,47,30.21,10.0,NNW,4.6,-,N/A,,Clear,340,2013-03-03 08:35:00
1:55 AM,38.7,16.0,40,30.20,10.0,SSW,8.1,-,N/A,,Clear,210,2013-03-03 08:55:00
2:15 AM,43.0,13.8,31,30.19,10.0,SW,10.4,20.7,N/A,,Clear,220,2013-03-03 09:15:00
2:35 AM,42.4,14.0,32,30.17,10.0,WSW,15.0,18.4,N/A,,Clear,240,2013-03-03 09:35:00
2:55 AM,36.9,16.0,43,30.15,10.0,WSW,13.8,-,N/A,,Clear,240,2013-03-03 09:55:00
3:35 AM,40.1,14.7,36,30.13,10.0,WSW,9.2,-,N/A,,Clear,240,2013-03-03 10:35:00
3:55 AM,38.7,15.3,39,30.12,10.0,West,9.2,17.3,N/A,,Clear,270,2013-03-03 10:55:00
4:15 AM,40.8,13.3,33,30.10,10.0,SW,11.5,19.6,N/A,,Clear,220,2013-03-03 11:15:00
4:35 AM,43.2,12.6,29,30.09,10.0,SW,12.7,19.6,N/A,,Clear,230,2013-03-03 11:35:00
4:55 AM,43.7,12.7,29,30.09,10.0,WSW,13.8,18.4,N/A,,Clear,240,2013-03-03 11:55:00
5:15 AM,44.2,12.2,27,30.07,10.0,WSW,12.7,20.7,N/A,,Clear,240,2013-03-03 12:15:00
5:35 AM,44.2,12.4,28,30.07,10.0,SW,15.0,25.3,N/A,,Clear,220,2013-03-03 12:35:00
5:55 AM,43.7,12.6,28,30.06,10.0,WSW,12.7,21.9,N/A,,Clear,240,2013-03-03 12:55:00
6:15 AM,43.0,13.3,30,30.04,10.0,SW,16.1,24.2,N/A,,Clear,230,2013-03-03 13:15:00
6:35 AM,43.3,13.1,29,30.04,10.0,SW,12.7,19.6,N/A,,Clear,230,2013-03-03 13:35:00
6:55 AM,44.6,14.0,29,30.03,10.0,SW,18.4,26.5,N/A,,Clear,220,2013-03-03 13:55:00
7:15 AM,45.1,14.7,29,30.03,10.0,SW,16.1,26.5,N/A,,Clear,220,2013-03-03 14:15:00
7:35 AM,46.0,14.9,29,30.03,10.0,SW,17.3,21.9,N/A,,Clear,220,2013-03-03 14:35:00
7:55 AM,47.7,15.3,27,30.02,10.0,SSW,18.4,27.6,N/A,,Clear,200,2013-03-03 14:55:00
8:15 AM,48.6,15.4,27,30.02,10.0,SSW,16.1,25.3,N/A,,Clear,200,2013-03-03 15:15:00
8:35 AM,50.0,15.6,25,30.02,10.0,SW,17.3,24.2,N/A,,Clear,220,2013-03-03 15:35:00
8:55 AM,51.4,15.3,24,30.02,10.0,SSW,15.0,20.7,N/A,,Clear,210,2013-03-03 15:55:00
9:15 AM,52.3,15.1,23,30.02,10.0,SSW,18.4,21.9,N/A,,Clear,200,2013-03-03 16:15:00
9:35 AM,52.7,15.8,23,30.01,10.0,SSW,12.7,19.6,N/A,,Clear,210,2013-03-03 16:35:00
9:55 AM,54.5,15.1,21,30.02,10.0,SW,19.6,33.4,N/A,,Clear,230,2013-03-03 16:55:00
10:15 AM,54.5,14.9,21,30.01,10.0,SW,13.8,25.3,N/A,,Clear,220,2013-03-03 17:15:00
10:35 AM,52.0,14.9,23,30.01,10.0,SSW,11.5,23.0,N/A,,Clear,210,2013-03-03 17:35:00
10:55 AM,52.7,13.3,21,30.01,10.0,WSW,12.7,20.7,N/A,,Clear,240,2013-03-03 17:55:00
11:15 AM,52.9,11.3,19,30.00,10.0,WSW,17.3,21.9,N/A,,Scattered Clouds,250,2013-03-03 18:15:00
11:35 AM,52.7,12.0,20,30.00,10.0,WSW,17.3,38.0,N/A,,Scattered Clouds,250,2013-03-03 18:35:00
11:55 AM,53.2,12.9,20,29.99,10.0,West,25.3,33.4,N/A,,Scattered Clouds,270,2013-03-03 18:55:00
12:15 PM,52.3,13.6,21,29.99,10.0,SW,8.1,40.3,N/A,,Scattered Clouds,230,2013-03-03 19:15:00
12:35 PM,52.5,15.6,23,29.99,10.0,West,20.7,34.5,N/A,,Scattered Clouds,260,2013-03-03 19:35:00
12:55 PM,52.7,16.5,24,29.97,10.0,WSW,12.7,28.8,N/A,,Clear,250,2013-03-03 19:55:00
1:15 PM,52.7,16.9,24,29.97,10.0,West,27.6,41.4,N/A,,Scattered Clouds,270,2013-03-03 20:15:00
1:35 PM,53.2,17.4,24,29.96,10.0,SW,12.7,25.3,N/A,,Scattered Clouds,230,2013-03-03 20:35:00
1:55 PM,54.1,17.2,23,29.95,10.0,West,16.1,27.6,N/A,,Scattered Clouds,260,2013-03-03 20:55:00
2:15 PM,53.1,18.3,26,29.94,10.0,SW,24.2,34.5,N/A,,Clear,230,2013-03-03 21:15:00
2:55 PM,54.3,18.5,25,29.92,10.0,WSW,21.9,29.9,N/A,,Clear,240,2013-03-03 21:55:00
3:15 PM,52.0,16.9,25,29.92,10.0,West,28.8,41.4,N/A,,Clear,260,2013-03-03 22:15:00
3:35 PM,51.1,16.5,25,29.91,10.0,West,31.1,46.0,N/A,,Clear,260,2013-03-03 22:35:00
3:55 PM,50.4,16.5,26,29.92,10.0,West,32.2,47.2,N/A,,Clear,270,2013-03-03 22:55:00
4:15 PM,49.6,16.7,27,29.91,10.0,West,31.1,44.9,N/A,,Clear,260,2013-03-03 23:15:00
4:35 PM,48.6,16.7,28,29.90,10.0,West,32.2,40.3,N/A,,Clear,260,2013-03-03 23:35:00
4:55 PM,47.5,17.4,30,29.91,10.0,West,24.2,40.3,N/A,,Clear,270,2013-03-03 23:55:00
5:15 PM,46.6,18.5,33,29.91,10.0,West,26.5,39.1,N/A,,Clear,260,2013-03-04 00:15:00
5:35 PM,45.0,21.0,39,29.91,10.0,West,25.3,35.7,N/A,,Clear,260,2013-03-04 00:35:00
5:55 PM,43.9,22.5,43,29.91,10.0,West,19.6,32.2,N/A,,Clear,260,2013-03-04 00:55:00
6:15 PM,43.3,22.3,43,29.92,10.0,WSW,18.4,31.1,N/A,,Clear,250,2013-03-04 01:15:00
6:35 PM,42.6,23.7,47,29.92,10.0,WSW,19.6,26.5,N/A,,Scattered Clouds,250,2013-03-04 01:35:00
6:55 PM,40.8,27.9,60,29.93,10.0,WSW,23.0,32.2,N/A,,Scattered Clouds,250,2013-03-04 01:55:00
7:15 PM,39.9,28.4,63,29.95,10.0,West,19.6,28.8,N/A,,Mostly Cloudy,260,2013-03-04 02:15:00
7:35 PM,39.6,28.2,64,29.95,10.0,WSW,12.7,19.6,N/A,,Scattered Clouds,250,2013-03-04 02:35:00
7:55 PM,39.2,28.0,64,29.95,10.0,NNW,6.9,17.3,N/A,,Clear,340,2013-03-04 02:55:00
8:15 PM,39.4,26.6,60,29.95,10.0,West,8.1,-,N/A,,Clear,270,2013-03-04 03:15:00
8:35 PM,39.2,27.5,63,29.94,10.0,NW,5.8,-,N/A,,Scattered Clouds,310,2013-03-04 03:35:00
8:55 PM,39.4,27.5,62,29.95,10.0,West,11.5,16.1,N/A,,Scattered Clouds,270,2013-03-04 03:55:00
9:15 PM,38.3,28.9,69,29.95,10.0,West,12.7,17.3,N/A,,Clear,260,2013-03-04 04:15:00
9:35 PM,38.1,28.4,68,29.94,10.0,West,6.9,16.1,N/A,,Scattered Clouds,260,2013-03-04 04:35:00
9:55 PM,38.1,27.9,67,29.93,10.0,WSW,9.2,-,N/A,,Scattered Clouds,250,2013-03-04 04:55:00
10:15 PM,38.5,28.4,67,29.92,10.0,West,6.9,-,N/A,,Scattered Clouds,270,2013-03-04 05:15:00
10:35 PM,38.1,28.4,68,29.91,10.0,West,9.2,-,N/A,,Clear,280,2013-03-04 05:35:00
11:15 PM,37.8,27.5,67,29.91,10.0,ESE,5.8,-,N/A,,Scattered Clouds,120,2013-03-04 06:15:00
11:35 PM,38.8,28.4,66,29.91,10.0,West,6.9,-,N/A,,Mostly Cloudy,270,2013-03-04 06:35:00
11:55 PM,37.8,28.2,68,29.89,10.0,SW,4.6,-,N/A,,Mostly Cloudy,220,2013-03-04 06:55:00